Location: Casco Volunteer Fire Department
(44.5576°N, 87.6146°W)
Time: 07:59:07
(UTC+00:00)

Tiangong - Visible Passes

Search period start: 12 March 2026 00:00
Search period end: 22 March 2026 00:00
Orbit: 381 x 390 km, 41.5° (Epoch: 11 March)

Date Brightness Start Highest point End Pass type
(mag) Time Alt. Az. Time Alt. Az. Time Alt. Az.
12 Mar -0.5 11:28:10 10° SW 11:30:58 28° SSE 11:33:46 10° E visible
13 Mar -0.2 10:30:50 19° S 10:31:38 20° SSE 10:34:05 10° ESE visible
14 Mar -1.1 11:06:21 15° SW 11:08:38 37° SSE 11:11:38 10° E visible
15 Mar -0.6 10:09:33 28° SSE 10:09:33 28° SSE 10:11:59 10° E visible
16 Mar -1.5 10:44:52 28° SW 10:46:08 44° S 10:49:12 10° E visible
17 Mar 0.0 09:47:55 24° ESE 09:47:55 24° ESE 09:49:30 10° E visible
17 Mar -1.5 11:20:08 11° W 11:23:07 45° S 11:26:11 10° ESE visible
18 Mar -1.8 10:23:08 46° SSW 10:23:25 48° S 10:26:30 10° ESE visible
19 Mar 0.8 09:26:06 15° ESE 09:26:06 15° ESE 09:26:45 10° E visible
19 Mar -1.4 10:58:18 18° WSW 11:00:16 39° SSW 11:03:16 10° ESE visible
20 Mar -1.0 10:01:15 36° SE 10:01:15 36° SE 10:03:32 10° ESE visible
21 Mar -1.1 10:36:25 26° SW 10:37:11 30° SSW 10:40:01 10° SE visible
